Regional Weather Roundup
Issued by NWS

Home | Current Version | Previous Version | Text Only | Print | Product List | Glossary Off
Versions: 1 2 3 4 5 6 7 8 9 10 11 12 13 14 15 16 17 18 19 20 21 22 23 24 25 26 27 28 29 30 31 32 33 34 35 36 37 38 39 40 41 42 43 44 45 46 47 48 49 50

000
ASUS44 KMEG 020810
RWRTN
TENNESSEE HOURLY STATE WEATHER ROUNDUP
NATIONAL WEATHER SERVICE MEMPHIS TN
200 AM CST MON MAR 02 2015

TNZ002-004-019-021-049-052-054-088>092-020900-
WEST TENNESSEE

CITY           SKY/WX    TMP DP  RH WIND       PRES   REMARKS
MEMPHIS INTL   CLOUDY    37  34  89 NE12      30.41R WCI  29
NWS MEMPHIS      N/A     36 N/A N/A MISG        N/A
JACKSON        CLOUDY    36  33  89 N12       30.42R WCI  28
DYERSBURG      CLOUDY    34  19  55 N10       30.47R WCI  26
UNION CITY     CLOUDY    30  28  93 N8        30.44S WCI  23
PARIS          CLOUDY    28  28 100 N13       30.43R WCI  18
LEXINGTON      CLOUDY    36  34  93 N7        30.38S WCI  30
SAVANNAH       CLOUDY    39  39 100 N8        30.37S WCI  34
$$

TNZ008-025-027-028-033-062-065-066-020900-
NORTH MIDDLE TENNESSEE

CITY           SKY/WX    TMP DP  RH WIND       PRES   REMARKS
NASHVILLE      CLOUDY    36  34  92 N9        30.39S WCI  29
CLARKSVILLE    CLOUDY    32  30  92 N10       30.43R WCI  24
SMYRNA         LGT RAIN  36  36 100 N13       30.40S FOG     WCI  27
COOKEVILLE     CLOUDY    39  39 100 N5        30.33R
CROSSVILLE     LGT RAIN  47  45  93 W8        30.28F
$$

TNZ061-075-076-078-094-096-097-020900-
SOUTH MIDDLE TENNESSEE

CITY           SKY/WX    TMP DP  RH WIND       PRES   REMARKS
FAYETTEVILLE   CLOUDY    45  45 100 CALM        N/A  VSB 3/4
TULLAHOMA      CLOUDY    46  46 100 NW6       30.32F
WINCHESTER     CLOUDY    46  46 100 CALM      30.31F VSB 1/2
MCMINNVILLE    CLOUDY    43  43 100 N10       30.32S
COLUMBIA       CLOUDY   N/A N/A N/A N8        30.34F
SHELBYVILLE    CLOUDY    41  39  93 N13       30.36R
$$

TNZ017-018-042-046-047-020900-
NORTHEAST TENNESSEE

CITY           SKY/WX    TMP DP  RH WIND       PRES   REMARKS
TRI CITIES     LGT RAIN  42  42 100 W3        30.26R FOG
ELIZABETHTON   RAIN      45  43  93 W9        30.25R FOG
$$

TNZ012-013-036-069-073-074-020900-
CENTRAL EAST TENNESSEE

CITY           SKY/WX    TMP DP  RH WIND       PRES   REMARKS
KNOXVILLE      LGT RAIN  45  45 100 W9        30.29S FOG
OAK RIDGE      LGT RAIN  46  44  93 SW7       30.30S FOG
GATLINBURG     CLOUDY    45  43  93 W9        30.28R
MORRISTOWN     CLOUDY    43  43 100 W8        30.27F
$$

TNZ083-085-099-020900-
SOUTHEAST TENNESSEE

CITY           SKY/WX    TMP DP  RH WIND       PRES   REMARKS
CHATTANOOGA    RAIN      47  45  93 CALM      30.33R FOG
$$

SKY/WX REPORTED AS FAIR MEANS FEW OR NO CLOUDS BELOW
12 THOUSAND FEET.



USA.gov is the U.S. government's official web portal to all federal, state and local government web resources and services.